Location: �clusier
(49.9361°N, 2.7869°E)
Time: 08:18:51
(UTC+00:00)

ARIANE 5 R/B - Pass Details

Date: 16 June 2021
Orbit: 620 x 656 km, 98.1° (Epoch: 28 July)

Event Time Altitude Azimuth Distance (km) Brightness Sun altitude
Exits shadow 21:43:40 - 192° (SSW) 2,157 4.9 -11.5°
Reaches altitude 10° 21:44:00 10° 194° (SSW) 2,027 4.8 -11.6°
Maximum altitude 21:48:08 38° 263° (W) 989 3.8 -11.9°
Drops below altitude 10° 21:52:20 10° 332° (NNW) 2,063 6.8 -12.2°
Sets 21:54:42 0° 340° (NNW) 2,984 8.1 -12.4°
